TITAN 3C TRANSTAGE DEB, 1883

Orbit data source: Space-Track

TITAN 3C TRANSTAGE DEB, 1883 is space debris in LEO originally from a launch on Fri, 15 Oct 1965 UTC launched from the Air Force Eastern Test Range (AFETR). Debris objects in space refer to the collection of defunct objects orbiting the Earth. Examples of debris include non-operational satellites, rocket bodies, and fragments generated from explosions, collisions, or faulty payload assembly.

Loading next visibility...
Identifier
1883, 1965-082EY
Orbit
LEO
Last TLE update
2 days ago
Origin
Manufacturer
Unknown
Mission
Spacecraft
Bus & Motor
Unknown
Mass
Unknown
Launch date (UTC)
1965-10-15 (60 years ago)
Launch vehicle
Unknown
Launch site
Air Force Eastern Test Range (AFETR)
Object type
Payload
Rocket body
Debris
Shape & HBR
Unknown
Radar Cross Section
Small (<0.1 m²)

Expand to show TLE details & history

TLE from 2 days ago
0 TITAN 3C TRANSTAGE DEB
1 01883U 65082EY  25189.86293659  .00004022  00000-0  18722-3 0  9995
2 01883  32.0918 102.8993 0015479 279.5071  80.3840 15.18357708212984
Epoch: 2025-07-08T20:42Z
TLE epoch observation values (Epoch: 2025-07-08T20:42:37.721Z)
Latitude
-0.00002°
Longitude
-134.80973°
Altitude
507.651 km
Speed
7.614 km/s
True Right ascension
06h 51m 35s
True Declination
0° 00' 00"
Sunlit
Object was in daylight at epoch
Visualization orbit readout
Latitude
-32.15366°
Longitude
125.38196°
Altitude
509 km
Speed
7.616 km/s
Apparent Right ascension
01h 08m 17s
Apparent Declination
-36° 41' 44"
Sunlit
Object is in full shadow
Visualization observer readout
Local Sidereal Time
14:15:13
Azimuth
81.523° E
Elevation
-76.505°
Doppler factor
1
Orbital elements
Apogee altitude
525.165 km
Perigee altitude
503.827 km
Semi-major axis
6,892.633 km
Eccentricity
0.00155
Inclination
32.0918°
RAAN
102.8993°
Arg. of periapsis
279.5071°
True anomaly
Unknown
Mean anomaly
80.384°
Eccentric anomaly
Unknown
Mean motion
3.79285 °/min
Orbital period
94.92 mins
BSTAR
0.00018722
Loading maneuver chart data...
Loading SW <> Apogee altitude chart data...

TITAN 3C TRANSTAGE DEB Visibility forecast

Observer location: undefined°, undefined°

Span
Click to sort rows by Start time (UTC) header in descending order
Start Az.
Max El. time (UTC)
Max El. Az.
Max El.
End time (UTC)
End Az.
5 mins2025-07-11 21:33:43.896Z207.576° SW2025-07-11 21:35:43.896Z174.366° S18.016°2025-07-11 21:38:43.896Z122.609° SE
5 mins2025-07-11 23:13:43.896Z225.881° WSW2025-07-11 23:15:43.896Z185.279° SSW23.556°2025-07-11 23:18:43.896Z128° SE
|